This demonstration page uses our WeatherBlox Daily Observations layout. Learn more.

Left ArrowRight Arrow

47.50024, -111.30081

Hourly Observations for January 2, 2022

Temp ( °F °C ) Dew Point ( °F °C ) Humidity (%) Winds ( mph kmh ) Pressure ( in mb ) Visibility ( mi km ) Precip ( " mm )
12:53 am 00:53 Clear 26 -3.3 12 -11.1 55 55 SW 35 56 30.06 1018 5 8 0.00 0.00
1:53 am 01:53 Clear 27 -2.8 12 -11.1 53 53 SW 36 57 30.06 1018 9 14 0.00 0.00
2:53 am 02:53 Clear 28 -2.2 11 -11.7 49 49 SW 30 48 30.07 1018 8 13 0.00 0.00
3:53 am 03:53 Clear 28 -2.2 12 -11.1 51 51 SW 39 63 30.07 1018 10 16 0.00 0.00
4:53 am 04:53 Clear 29 -1.7 12 -11.1 49 49 SW 31 50 30.06 1018 10 16 0.00 0.00
5:53 am 05:53 Clear 30 -1.1 13 -10.6 49 49 SW 28 44 30.05 1018 10 16 0.00 0.00
6:53 am 06:53 Clear 28 -2.2 12 -11.1 51 51 SW 26 43 30.06 1018 10 16 0.00 0.00
7:53 am 07:53 Clear 27 -2.8 12 -11.1 53 53 SSW 18 30 30.07 1018 10 16 0.00 0.00
8:53 am 08:53 Sunny 29 -1.7 13 -10.6 51 51 SW 25 41 30.06 1018 10 16 0.00 0.00
9:53 am 09:53 Sunny 28 -2.2 13 -10.6 53 53 SSW 25 41 30.07 1018 10 16 0.00 0.00
10:53 am 10:53 Sunny 29 -1.7 13 -10.6 51 51 SW 21 33 30.07 1018 10 16 0.00 0.00
11:53 am 11:53 Sunny 30 -1.1 13 -10.6 49 49 SW 26 43 30.05 1018 10 16 0.00 0.00
12:53 pm 12:53 Sunny 31 -0.6 13 -10.6 47 47 SW 26 43 30.02 1017 10 16 0.00 0.00
1:53 pm 13:53 Sunny 33 0.6 14 -10 45 45 SW 23 37 30.00 1016 10 16 0.00 0.00
2:53 pm 14:53 Sunny 33 0.6 14 -10 45 45 WSW 25 41 29.99 1016 10 16 0.00 0.00
3:53 pm 15:53 Sunny 32 0 15 -9.4 50 50 SSW 23 37 29.99 1016 10 16 0.00 0.00
4:53 pm 16:53 Clear 32 0 14 -10 47 47 SW 18 30 29.99 1016 10 16 0.00 0.00
5:53 pm 17:53 Clear 31 -0.6 14 -10 49 49 SSW 22 35 29.98 1015 10 16 0.00 0.00
6:53 pm 18:53 Clear 30 -1.1 14 -10 51 51 SSW 17 28 29.98 1015 10 16 0.00 0.00
7:53 pm 19:53 Clear 29 -1.7 12 -11.1 49 49 S 14 22 30.00 1016 10 16 0.00 0.00
8:53 pm 20:53 Clear 29 -1.7 12 -11.1 49 49 SSW 16 26 29.99 1016 10 16 0.00 0.00
9:53 pm 21:53 Clear 29 -1.7 12 -11.1 49 49 SSW 20 31 29.96 1015 10 16 0.00 0.00
10:53 pm 22:53 Clear 30 -1.1 11 -11.7 45 45 SSW 20 31 29.95 1014 10 16 0.00 0.00
11:53 pm 23:53 Clear 30 -1.1 11 -11.7 45 45 SSW 22 35 29.95 1014 10 16 0.00 0.00

Powered by AerisWeather